Date String (YYYY-MM-DD hh:mm:ss) UTC,Instrument flags,Ambient pressure (hPa),Sample flow (lpm),Bypass flow (lpm),Sample temperature (°C),Ambient temperature (°C),ASC tube jacket temperature (°C),LED temperature (°C),Box temperature (°C),Sample RH (%),Span deviation,Mass concentration (μg/m³),Mass concentration (μg/m³),Mass concentration (μg/m³)
DateTimeUTC,F1_M11,P_M11,Q1_M11,Q2_M11,T1_M11,T2_M11,T3_M11,T4_M11,T5_M11,U1_M11,ZSPAN_M11,X0_M11,X2_M11,X1_M11
2023-05-04 03:00:00,,0825.2,4.98,0.00,30.2,27.6,00.0,38.4,31.6,12.0,0000.0,0015.79,0005.29,0003.46
2023-05-04 03:01:00,,0825.2,5.01,0.00,30.1,26.1,00.0,38.3,31.3,12.0,0000.0,0016.58,0005.37,0003.49
2023-05-04 03:02:00,,0825.2,5.01,0.00,30.0,25.8,00.0,38.2,31.2,12.1,0000.0,0017.02,0005.49,0003.49
2023-05-04 03:03:00,,0825.2,4.98,0.00,29.9,26.1,00.0,38.3,31.1,12.2,0000.0,0017.27,0005.50,0003.50
2023-05-04 03:04:00,,0825.2,5.00,0.00,29.8,26.4,00.0,38.3,31.1,12.3,0000.0,0017.05,0005.45,0003.50
2023-05-04 03:05:00,,0825.3,5.01,0.00,29.8,26.8,00.0,38.3,31.2,12.3,0000.0,0017.15,0005.42,0003.51
2023-05-04 03:06:00,,0825.2,4.98,0.00,29.8,27.1,00.0,38.2,31.3,12.3,0000.0,0017.40,0005.54,0003.54
2023-05-04 03:07:00,,0825.2,4.99,0.00,29.8,27.4,00.0,38.2,31.3,12.4,0000.0,0018.21,0005.65,0003.57
2023-05-04 03:08:00,,0825.2,5.02,0.00,29.8,27.7,00.0,38.2,31.4,12.4,0000.0,0017.99,0005.59,0003.59
2023-05-04 03:09:00,,0825.2,5.00,0.00,29.8,27.9,00.0,38.2,31.4,12.4,0000.0,0018.71,0005.61,0003.59
2023-05-04 03:10:00,,0825.2,5.00,0.00,29.8,28.0,00.0,38.2,31.4,12.4,0000.0,0018.69,0005.62,0003.59
2023-05-04 03:11:00,,0825.3,5.00,0.00,29.8,28.2,00.0,38.2,31.4,12.4,0000.0,0019.77,0005.67,0003.60
2023-05-04 03:12:00,,0825.2,5.00,0.00,29.9,28.3,00.0,38.2,31.4,12.4,0000.0,0019.12,0005.63,0003.59
2023-05-04 03:13:00,,0825.2,5.00,0.00,29.9,28.4,00.0,38.2,31.5,12.4,0000.0,0019.11,0005.53,0003.59
2023-05-04 03:14:00,,0825.2,5.00,0.00,29.9,28.4,00.0,38.2,31.5,12.4,0000.0,0019.45,0005.58,0003.60
2023-05-04 03:15:00,,0825.3,4.99,0.00,29.9,28.5,00.0,38.3,31.5,12.4,0000.0,0019.83,0005.59,0003.59
2023-05-04 03:16:00,,0825.3,5.00,0.00,29.9,28.6,00.0,38.3,31.6,12.4,0000.0,0020.53,0005.58,0003.57
2023-05-04 03:17:00,,0825.3,5.01,0.00,29.9,28.6,00.0,38.3,31.6,12.3,0000.0,0020.66,0005.49,0003.56
2023-05-04 03:18:00,,0825.3,4.99,0.00,29.9,28.6,00.0,38.3,31.6,12.3,0000.0,0019.87,0005.46,0003.55
2023-05-04 03:19:00,,0825.3,4.99,0.00,30.0,28.6,00.0,38.3,31.6,12.3,0000.0,0019.90,0005.54,0003.55
2023-05-04 03:20:00,,0825.3,5.01,0.00,30.0,28.7,00.0,38.3,31.6,12.3,0000.0,0019.06,0005.54,0003.54
2023-05-04 03:21:00,,0825.3,5.01,0.00,30.0,28.7,00.0,38.3,31.6,12.3,0000.0,0019.54,0005.52,0003.54
2023-05-04 03:22:00,,0825.4,4.99,0.00,30.0,28.7,00.0,38.3,31.7,12.2,0000.0,0018.56,0005.51,0003.54
2023-05-04 03:23:00,,0825.4,5.00,0.00,30.0,28.8,00.0,38.4,31.7,12.1,0000.0,0019.04,0005.58,0003.54
2023-05-04 03:24:00,,0825.4,4.99,0.00,30.1,28.8,00.0,38.4,31.7,12.1,0000.0,0019.27,0005.59,0003.55
2023-05-04 03:25:00,,0825.3,5.02,0.00,30.1,28.8,00.0,38.4,31.8,12.0,0000.0,0019.61,0005.58,0003.57
2023-05-04 03:26:00,,0825.4,5.00,0.00,30.1,28.8,00.0,38.4,31.7,11.9,0000.0,0019.97,0005.56,0003.57
2023-05-04 03:27:00,,0825.3,5.00,0.00,30.1,28.7,00.0,38.4,31.7,11.9,0000.0,0019.56,0005.55,0003.59
2023-05-04 03:28:00,,0825.4,5.00,0.00,30.1,28.7,00.0,38.4,31.7,11.8,0000.0,0018.78,0005.59,0003.60
2023-05-04 03:29:00,,0825.4,5.00,0.00,30.1,28.7,00.0,38.4,31.7,11.8,0000.0,0018.62,0005.59,0003.61
2023-05-04 03:30:00,,0825.4,5.01,0.00,30.1,28.7,00.0,38.4,31.7,11.7,0000.0,0018.19,0005.49,0003.62
2023-05-04 03:31:00,,0825.3,5.00,0.00,30.1,28.7,00.0,38.4,31.7,11.6,0000.0,0018.31,0005.51,0003.62
2023-05-04 03:32:00,,0825.3,5.00,0.00,30.1,28.7,00.0,38.4,31.7,11.6,0000.0,0017.62,0005.57,0003.62
2023-05-04 03:33:00,,0825.3,4.99,0.00,30.1,28.7,00.0,38.4,31.7,11.5,0000.0,0017.49,0005.53,0003.61
2023-05-04 03:34:00,,0825.3,4.99,0.00,30.1,27.7,00.0,38.4,31.6,11.4,0000.0,0018.13,0005.48,0003.60
2023-05-04 03:35:00,,0825.2,5.01,0.00,30.0,25.9,00.0,38.3,31.3,11.3,0000.0,0018.77,0005.50,0003.61
2023-05-04 03:36:00,,0825.2,5.01,0.00,29.9,25.5,00.0,38.2,31.1,11.2,0000.0,0018.11,0005.46,0003.58
2023-05-04 03:37:00,,0825.3,5.01,0.00,29.8,25.8,00.0,38.2,30.9,11.4,0000.0,0017.43,0005.37,0003.55
2023-05-04 03:38:00,,0825.3,4.98,0.00,29.7,26.1,00.0,38.2,31.0,11.7,0000.0,0017.27,0005.38,0003.53
2023-05-04 03:39:00,,0825.3,5.00,0.00,29.7,26.5,00.0,38.2,31.1,11.8,0000.0,0017.16,0005.36,0003.50
2023-05-04 03:40:00,,0825.2,5.00,0.00,29.7,26.8,00.0,38.2,31.1,11.8,0000.0,0017.21,0005.28,0003.47
2023-05-04 03:41:00,,0825.2,5.01,0.00,29.7,27.1,00.0,38.2,31.1,11.8,0000.0,0017.07,0005.24,0003.44
2023-05-04 03:42:00,,0825.2,5.00,0.00,29.7,27.3,00.0,38.2,31.2,11.8,0000.0,0016.40,0005.18,0003.42
2023-05-04 03:43:00,,0825.2,4.99,0.00,29.7,27.5,00.0,38.1,31.2,11.8,0000.0,0015.54,0005.06,0003.41
2023-05-04 03:44:00,,0825.2,4.99,0.00,29.7,27.7,00.0,38.1,31.2,11.8,0000.0,0015.75,0005.02,0003.40
2023-05-04 03:45:00,,0825.2,5.00,0.00,29.7,27.8,00.0,38.1,31.2,11.8,0000.0,0015.04,0005.00,0003.39
2023-05-04 03:46:00,,0825.2,5.00,0.00,29.7,27.9,00.0,38.1,31.2,11.6,0000.0,0013.88,0004.96,0003.37
2023-05-04 03:47:00,,0825.3,5.01,0.00,29.7,28.0,00.0,38.1,31.3,11.7,0000.0,0013.53,0004.92,0003.35
2023-05-04 03:48:00,,0825.2,5.01,0.00,29.7,28.0,00.0,38.1,31.3,11.6,0000.0,0013.27,0004.94,0003.36
2023-05-04 03:49:00,,0825.3,5.00,0.00,29.7,28.1,00.0,38.1,31.3,11.5,0000.0,0013.24,0004.93,0003.35
2023-05-04 03:50:00,,0825.2,5.00,0.00,29.7,28.2,00.0,38.1,31.3,11.5,0000.0,0014.59,0004.84,0003.35
2023-05-04 03:51:00,,0825.3,5.00,0.00,29.7,28.2,00.0,38.1,31.3,11.5,0000.0,0015.38,0004.87,0003.35
2023-05-04 03:52:00,,0825.3,5.01,0.00,29.7,28.2,00.0,38.1,31.3,11.5,0000.0,0015.16,0004.87,0003.35
2023-05-04 03:53:00,,0825.3,5.00,0.00,29.7,28.2,00.0,38.1,31.3,11.4,0000.0,0015.03,0004.90,0003.34
2023-05-04 03:54:00,,0825.2,5.00,0.00,29.7,28.3,00.0,38.1,31.3,11.4,0000.0,0015.43,0004.92,0003.35
2023-05-04 03:55:00,,0825.2,5.00,0.00,29.7,28.3,00.0,38.1,31.3,11.5,0000.0,0015.01,0004.94,0003.34
2023-05-04 03:56:00,,0825.2,5.00,0.00,29.7,28.3,00.0,38.1,31.4,11.5,0000.0,0014.79,0004.95,0003.35
2023-05-04 03:57:00,,0825.2,4.99,0.00,29.8,28.3,00.0,38.1,31.4,11.6,0000.0,0014.58,0004.92,0003.36
2023-05-04 03:58:00,,0825.2,5.00,0.00,29.8,28.3,00.0,38.1,31.4,11.7,0000.0,0014.86,0004.96,0003.36
2023-05-04 03:59:00,,0825.2,5.00,0.00,29.8,28.4,00.0,38.1,31.4,11.5,0000.0,0015.43,0005.02,0003.36
